E1763 Weather Reports


time (UTC)temp
F
wind
direction
speed
knots
gust
knots
rain 1hr
in
rain 24hr
in
rain mn
in
humidity
%
barometer
mb
20260507210030 69 283 0.0 0.0 0.00 0.01 0.01 78 1013.2
20260507204522 67 236 0.0 0.0 0.00 0.01 0.01 80 1013.1
20260507203019 65 196 0.0 1.7 0.00 0.01 0.01 81 1013.2
20260507201519 65 240 0.0 3.5 0.00 0.01 0.01 81 1013.3
20260507200016 65 239 0.0 0.0 0.00 0.01 0.01 85 1013.5
20260507194528 64 141 0.0 0.0 0.00 0.01 0.01 86 1013.5
20260507193014 62 182 0.0 0.0 0.00 0.01 0.01 89 1013.6
20260507191506 60 204 0.0 0.0 0.00 0.01 0.01 92 1013.7
20260507190010 59 227 0.0 0.0 0.00 0.01 0.01 92 1013.8
20260507184600 57 194 0.0 0.0 0.00 0.01 0.01 94 1013.9
20260507183115 56 311 0.0 0.0 0.00 0.01 0.01 95 1014.1
20260507181600 56 248 0.0 0.0 0.00 0.01 0.01 96 1014.1
20260507180055 55 207 0.0 0.0 0.00 0.01 0.01 96 1014.1
20260507174600 54 270 0.0 0.0 0.00 0.01 0.01 96 1014.1
20260507173050 53 262 0.0 0.0 0.00 0.01 0.01 97 1014.2
20260507171547 53 279 0.0 0.0 0.00 0.01 0.01 97 1014.2
20260507170046 53 193 0.0 0.0 0.00 0.01 0.01 97 1014.2
20260507164603 52 238 0.0 0.0 0.00 0.01 0.01 96 1014.1
20260507163042 52 238 0.0 0.0 0.00 0.01 0.01 97 1014.1
20260507161552 52 197 0.0 0.0 0.00 0.01 0.01 97 1014.1
20260507160040 52 243 0.0 0.0 0.00 0.01 0.01 97 1014.0
20260507154539 51 248 0.0 0.0 0.00 0.02 0.01 97 1013.9
20260507153041 51 226 0.0 0.0 0.00 0.02 0.01 97 1013.8
20260507151537 51 258 0.0 0.0 0.00 0.02 0.01 96 1013.6
20260507150036 50 211 0.0 0.9 0.00 0.02 0.01 96 1013.5
20260507144537 50 196 0.0 0.0 0.00 0.02 0.01 97 1013.5
20260507143040 50 194 0.0 0.0 0.00 0.02 0.01 97 1013.5
20260507141535 50 100 0.0 0.0 0.00 0.02 0.01 96 1013.4
20260507140035 50 194 0.0 0.0 0.00 0.02 0.01 96 1013.3
20260507134533 50 74 0.0 0.0 0.00 0.02 0.01 96 1013.4
20260507133032 49 127 0.0 0.0 0.00 0.02 0.01 96 1013.2
20260507131531 49 127 0.0 0.0 0.01 0.02 0.01 96 1013.1
20260507130037 50 126 0.0 0.0 0.01 0.02 0.01 96 1013.1
20260507124537 50 126 0.0 0.0 0.01 0.02 0.01 96 1013.1
20260507123028 50 127 0.0 0.0 0.01 0.02 0.01 96 1013.2
20260507121527 50 126 0.0 0.0 0.00 0.01 0.00 96 1013.1
20260507120025 50 126 0.0 0.0 0.00 0.01 0.00 96 1013.1
20260507114534 50 126 0.0 0.0 0.00 0.01 0.00 96 1013.2
20260507113038 50 126 0.0 0.0 0.00 0.01 0.00 96 1013.3
20260507111525 50 319 0.0 0.0 0.00 0.01 0.00 96 1013.3
20260507110020 50 319 0.0 0.0 0.00 0.01 0.00 96 1013.4
20260507104519 50 355 0.0 0.0 0.00 0.01 0.00 96 1013.4
20260507103020 50 9 0.0 0.0 0.00 0.01 0.00 96 1013.6
20260507101518 50 5 0.0 0.0 0.00 0.01 0.00 96 1013.5
20260507100014 50 258 0.0 0.0 0.00 0.01 0.00 96 1013.6
20260507094511 50 355 0.0 0.0 0.00 0.01 0.00 96 1013.7
20260507093010 50 343 0.0 0.0 0.00 0.01 0.00 96 1013.7
20260507091509 51 328 0.0 0.0 0.00 0.01 0.00 96 1013.8
20260507090008 51 346 0.0 0.0 0.00 0.01 0.00 96 1013.9
20260507084508 51 292 0.0 0.0 0.00 0.01 0.00 95 1013.8
20260507083006 51 292 0.0 0.0 0.00 0.01 0.00 95 1013.7
20260507081507 51 9 0.0 0.0 0.00 0.01 0.00 95 1013.7
20260507080004 51 333 0.0 0.0 0.00 0.01 0.00 95 1013.8
20260507074503 51 5 0.0 0.0 0.00 0.01 0.00 95 1013.8
20260507073002 51 32 0.0 0.0 0.00 0.01 0.00 95 1013.8
20260507071500 51 32 0.0 0.0 0.00 0.01 0.00 95 1013.9
20260507070106 51 32 0.0 0.0 0.00 0.01 0.00 95 1013.8
20260507064558 51 32 0.0 0.0 0.00 0.01 0.01 95 1013.8
20260507063058 51 9 0.0 0.0 0.00 0.01 0.01 95 1013.9
20260507061558 51 10 0.0 0.0 0.00 0.01 0.01 94 1014.0
20260507054558 51 317 0.0 0.0 0.00 0.01 0.01 94 1014.3
20260507053056 52 5 0.0 0.0 0.00 0.01 0.01 94 1014.3
20260507051556 52 54 0.0 0.0 0.00 0.01 0.01 94 1014.3
20260507050055 52 83 0.0 0.0 0.00 0.01 0.01 94 1014.3
20260507044606 52 349 0.0 0.0 0.00 0.01 0.01 93 1014.5
20260507043104 52 81 0.0 0.0 0.00 0.01 0.01 93 1014.5
20260507041557 52 5 0.0 0.0 0.00 0.01 0.01 93 1014.4
20260507040053 52 46 0.0 0.0 0.00 0.01 0.01 92 1014.4
20260507034554 53 271 0.0 0.0 0.00 0.01 0.01 92 1014.3
20260507033053 53 246 0.0 0.0 0.00 0.01 0.01 91 1014.3
20260507031551 53 24 0.0 0.0 0.00 0.01 0.01 90 1014.2
20260507030051 54 163 0.0 0.0 0.00 0.01 0.01 89 1014.1
20260507024554 55 295 0.0 0.0 0.00 0.01 0.01 87 1014.1
20260507023104 56 349 0.0 0.0 3.31 0.00 0.01 85 1014.0
20260507021551 59 267 0.0 0.0 0.00 0.01 0.01 82 1013.9
20260507020149 61 355 0.0 0.0 0.00 0.01 0.01 79 1013.9
20260507014548 62 22 0.0 0.0 0.00 0.01 0.01 79 1014.0
20260507013047 64 345 0.0 1.7 0.00 0.01 0.01 75 1014.1
20260507011548 64 329 0.0 0.0 0.00 0.01 0.01 75 1014.2
20260507010046 64 333 0.0 0.0 0.00 0.01 0.01 76 1014.3
20260507004645 65 306 0.0 5.2 0.00 0.01 0.01 73 1014.3
20260507003045 68 63 0.0 0.0 0.00 0.01 0.01 71 1014.2
20260507001607 68 285 0.0 0.0 0.00 0.01 0.01 71 1014.2
20260507000044 68 238 0.0 0.0 0.00 0.01 0.01 72 1014.1
20260506234541 69 157 0.0 0.0 0.00 0.01 0.01 70 1014.2
20260506233040 67 246 0.0 0.0 0.00 0.01 0.01 73 1014.1
20260506231542 68 256 0.0 0.0 0.00 0.01 0.01 70 1014.2
20260506230051 70 134 0.0 0.0 0.00 0.01 0.01 71 1014.3
20260506224536 69 164 0.0 0.0 0.00 0.01 0.01 73 1014.4
20260506223034 70 262 0.0 0.0 0.00 0.01 0.01 71 1014.5
20260506221533 70 175 0.0 0.0 0.00 0.01 0.01 70 1014.7
20260506220035 70 240 0.0 0.0 0.00 0.01 0.01 71 1014.9
20260506214530 69 184 0.0 0.0 0.00 0.01 0.01 73 1014.8
20260506213029 69 238 0.0 7.0 0.00 0.01 0.01 74 1015.0
20260506211527 68 247 0.0 0.0 0.00 0.01 0.01 73 1015.0